TimeCDT,TemperatureF,Dew PointF,Humidity,Sea Level PressureIn,VisibilityMPH,Wind Direction,Wind SpeedMPH,Gust SpeedMPH,PrecipitationIn,Events,Conditions,WindDirDegrees,DateUTC
12:13 AM,41.0,30.2,65,29.94,10.0,WSW,27.6,39.1,N/A,,Overcast,250,2012-10-05 05:13:00
12:34 AM,41.0,30.2,65,29.94,10.0,WSW,27.6,34.5,N/A,,Overcast,250,2012-10-05 05:34:00
12:53 AM,41.0,30.2,65,29.94,10.0,WSW,20.7,33.4,N/A,,Overcast,250,2012-10-05 05:53:00
1:14 AM,41.0,30.2,65,29.94,10.0,WSW,18.4,28.8,N/A,,Overcast,250,2012-10-05 06:14:00
1:34 AM,41.0,30.2,65,29.93,10.0,West,28.8,36.8,N/A,,Overcast,260,2012-10-05 06:34:00
1:53 AM,41.0,30.2,65,29.93,10.0,WSW,28.8,43.7,N/A,,Overcast,250,2012-10-05 06:53:00
2:14 AM,41.0,30.2,65,29.93,10.0,WSW,25.3,38.0,N/A,,Overcast,250,2012-10-05 07:14:00
2:34 AM,41.0,28.4,61,29.93,10.0,WSW,32.2,43.7,N/A,,Overcast,250,2012-10-05 07:34:00
2:53 AM,41.0,28.4,61,29.93,10.0,WSW,26.5,38.0,N/A,,Overcast,250,2012-10-05 07:53:00
3:14 AM,41.0,28.4,61,29.93,10.0,West,28.8,39.1,N/A,,Overcast,260,2012-10-05 08:14:00
3:34 AM,41.0,28.4,61,29.93,10.0,West,29.9,41.4,N/A,,Overcast,260,2012-10-05 08:34:00
3:53 AM,41.0,28.4,61,29.93,10.0,WSW,29.9,38.0,N/A,,Overcast,250,2012-10-05 08:53:00
4:14 AM,41.0,28.4,61,29.93,10.0,West,28.8,44.9,N/A,,Overcast,260,2012-10-05 09:14:00
4:34 AM,41.0,28.4,61,29.93,10.0,West,29.9,41.4,N/A,,Overcast,270,2012-10-05 09:34:00
4:53 AM,39.2,28.4,65,29.93,10.0,West,29.9,34.5,N/A,,Overcast,260,2012-10-05 09:53:00
5:14 AM,39.2,28.4,65,29.92,10.0,WSW,26.5,32.2,N/A,,Overcast,250,2012-10-05 10:14:00
5:34 AM,39.2,28.4,65,29.93,10.0,WSW,27.6,33.4,N/A,,Overcast,250,2012-10-05 10:34:00
5:53 AM,39.2,28.4,65,29.93,10.0,West,25.3,35.7,N/A,,Overcast,260,2012-10-05 10:53:00
6:14 AM,39.2,28.4,65,29.92,10.0,West,27.6,38.0,N/A,,Overcast,260,2012-10-05 11:14:00
6:34 AM,39.2,28.4,65,29.93,10.0,WSW,28.8,41.4,N/A,,Overcast,250,2012-10-05 11:34:00
6:53 AM,39.2,28.4,65,29.93,10.0,WSW,24.2,28.8,N/A,,Overcast,250,2012-10-05 11:53:00
7:14 AM,39.2,26.6,61,29.93,10.0,West,21.9,31.1,N/A,,Overcast,260,2012-10-05 12:14:00
7:34 AM,39.2,28.4,65,29.93,10.0,West,23.0,29.9,N/A,,Overcast,260,2012-10-05 12:34:00
7:53 AM,39.2,26.6,61,29.93,10.0,West,26.5,33.4,N/A,,Overcast,260,2012-10-05 12:53:00
8:14 AM,39.2,28.4,65,29.93,10.0,WSW,20.7,28.8,N/A,,Overcast,250,2012-10-05 13:14:00
8:34 AM,39.2,28.4,65,29.93,10.0,West,27.6,33.4,N/A,,Overcast,260,2012-10-05 13:34:00
8:53 AM,39.2,28.4,65,29.94,10.0,WSW,27.6,34.5,N/A,,Overcast,250,2012-10-05 13:53:00
9:14 AM,39.2,26.6,61,29.94,10.0,West,26.5,42.6,N/A,,Overcast,260,2012-10-05 14:14:00
9:33 AM,41.0,26.6,57,29.95,10.0,West,25.3,38.0,N/A,,Overcast,270,2012-10-05 14:33:00
9:54 AM,41.0,26.6,57,29.95,10.0,West,31.1,36.8,N/A,,Overcast,260,2012-10-05 14:54:00
10:14 AM,41.0,28.4,61,29.95,10.0,West,32.2,39.1,N/A,,Overcast,260,2012-10-05 15:14:00
10:33 AM,42.8,28.4,57,29.95,10.0,West,29.9,34.5,N/A,,Overcast,260,2012-10-05 15:33:00
10:53 AM,42.8,26.6,53,29.95,10.0,West,27.6,38.0,N/A,,Overcast,260,2012-10-05 15:53:00
11:14 AM,42.8,28.4,57,29.96,10.0,West,28.8,38.0,N/A,,Overcast,260,2012-10-05 16:14:00
11:33 AM,42.8,26.6,53,29.95,10.0,West,26.5,38.0,N/A,,Overcast,260,2012-10-05 16:33:00
11:53 AM,42.8,26.6,53,29.95,10.0,West,31.1,38.0,N/A,,Overcast,280,2012-10-05 16:53:00
12:14 PM,42.8,28.4,57,29.95,10.0,West,26.5,34.5,N/A,,Overcast,270,2012-10-05 17:14:00
12:33 PM,42.8,28.4,57,29.96,10.0,West,28.8,38.0,N/A,,Overcast,270,2012-10-05 17:33:00
12:53 PM,42.8,26.6,53,29.95,10.0,West,26.5,38.0,N/A,,Overcast,270,2012-10-05 17:53:00
1:33 PM,44.6,28.4,53,29.95,10.0,West,28.8,36.8,N/A,,Overcast,270,2012-10-05 18:33:00
1:53 PM,44.6,28.4,53,29.95,10.0,West,26.5,35.7,N/A,,Overcast,280,2012-10-05 18:53:00
2:14 PM,44.6,28.4,53,29.95,10.0,West,24.2,33.4,N/A,,Overcast,260,2012-10-05 19:14:00
2:33 PM,44.6,28.4,53,29.95,10.0,WNW,29.9,34.5,N/A,,Overcast,290,2012-10-05 19:33:00
2:54 PM,44.6,28.4,53,29.95,10.0,West,27.6,35.7,N/A,,Overcast,280,2012-10-05 19:54:00
3:14 PM,44.6,28.4,53,29.96,10.0,WNW,28.8,35.7,N/A,,Mostly Cloudy,290,2012-10-05 20:14:00
3:33 PM,44.6,30.2,57,29.96,10.0,West,26.5,36.8,N/A,,Scattered Clouds,280,2012-10-05 20:33:00
3:53 PM,42.8,30.2,61,29.97,10.0,West,29.9,35.7,N/A,,Mostly Cloudy,270,2012-10-05 20:53:00
4:14 PM,42.8,32.0,66,29.97,10.0,West,25.3,32.2,N/A,,Scattered Clouds,260,2012-10-05 21:14:00
4:33 PM,41.0,33.8,76,29.98,10.0,West,21.9,-,N/A,,Light Drizzle,260,2012-10-05 21:33:00
4:54 PM,39.2,33.8,81,29.99,10.0,West,21.9,28.8,N/A,,Light Drizzle,260,2012-10-05 21:54:00
5:14 PM,41.0,33.8,76,29.99,10.0,West,21.9,25.3,N/A,,Overcast,260,2012-10-05 22:14:00
5:33 PM,41.0,33.8,76,30.00,10.0,West,17.3,25.3,N/A,,Overcast,270,2012-10-05 22:33:00
5:54 PM,41.0,33.8,76,30.00,10.0,West,19.6,31.1,N/A,,Overcast,280,2012-10-05 22:54:00
6:14 PM,39.2,33.8,81,30.00,10.0,West,20.7,26.5,N/A,,Overcast,270,2012-10-05 23:14:00
6:33 PM,39.2,33.8,81,30.01,10.0,West,20.7,-,N/A,,Overcast,260,2012-10-05 23:33:00
6:54 PM,39.2,33.8,81,30.01,10.0,West,18.4,23.0,N/A,,Light Drizzle,260,2012-10-05 23:54:00
7:14 PM,39.2,33.8,81,30.01,10.0,WSW,16.1,24.2,N/A,,Light Drizzle,250,2012-10-06 00:14:00
7:33 PM,39.2,33.8,81,30.02,10.0,West,19.6,25.3,N/A,,Light Drizzle,260,2012-10-06 00:33:00
7:54 PM,39.2,33.8,81,30.03,10.0,West,15.0,-,N/A,,Overcast,260,2012-10-06 00:54:00
8:14 PM,39.2,33.8,81,30.03,10.0,West,15.0,-,N/A,,Overcast,260,2012-10-06 01:14:00
8:33 PM,39.2,33.8,81,30.03,10.0,West,16.1,-,N/A,,Overcast,270,2012-10-06 01:33:00
8:54 PM,39.2,33.8,81,30.04,10.0,West,19.6,24.2,N/A,,Overcast,280,2012-10-06 01:54:00
9:14 PM,39.2,35.6,87,30.03,10.0,West,18.4,-,N/A,,Overcast,270,2012-10-06 02:14:00
9:33 PM,39.2,35.6,87,30.04,10.0,West,15.0,-,N/A,,Overcast,270,2012-10-06 02:33:00
9:54 PM,39.2,35.6,87,30.04,10.0,West,15.0,-,N/A,,Light Drizzle,280,2012-10-06 02:54:00
10:14 PM,39.2,33.8,81,30.04,10.0,WNW,17.3,-,N/A,,Overcast,300,2012-10-06 03:14:00
10:33 PM,39.2,33.8,81,30.05,10.0,WNW,15.0,-,N/A,,Overcast,300,2012-10-06 03:33:00
10:54 PM,39.2,33.8,81,30.06,10.0,NW,13.8,-,N/A,,Overcast,310,2012-10-06 03:54:00
11:33 PM,39.2,32.0,75,30.07,10.0,NNW,10.4,18.4,N/A,,Overcast,330,2012-10-06 04:33:00
11:54 PM,39.2,32.0,75,30.07,10.0,NW,13.8,23.0,N/A,,Overcast,320,2012-10-06 04:54:00